Wind_Speed
22 21 21 24 26 28 26 27 29 29 26 24 23 22 21 19 18 16 15 12 10 9 9 8 8 7 5 4 4 4 5 3 4 3 7 10 14 12 7 10 10 13 17
22 24 23 26 29 30 30 30 31 30 27 25 24 21 20 18 15 14 13 13 12 12 9 10 10 10 8 6 5 6 4 3 2 5 7 10 11 9 5 6 8 11 13
25 24 25 27 30 33 32 32 31 29 27 27 25 23 22 19 18 15 13 12 11 11 10 10 11 9 8 8 9 10 9 6 5 8 10 8 9 3 2 5 7 9 10
25 30 30 29 32 37 36 35 34 30 29 28 26 22 20 19 17 16 14 13 14 14 11 10 10 11 11 8 8 11 13 11 11 12 10 7 4 2 5 5 9 9 6
24 30 32 33 34 36 36 35 33 30 29 27 26 25 24 22 21 20 17 18 17 12 10 11 11 12 11 9 10 12 10 11 13 12 8 3 1 5 7 5 8 8 6
16 29 34 36 35 36 35 34 34 30 31 29 29 28 22 18 20 16 16 15 11 10 10 11 11 11 10 9 10 10 8 7 7 6 4 2 3 5 7 5 7 7 7
17 25 35 37 36 36 36 34 30 30 31 29 26 24 28 22 17 16 14 12 12 11 11 12 12 11 11 9 8 6 5 5 5 5 3 4 4 5 5 6 4 6 8
17 24 33 38 39 39 35 33 30 30 30 28 30 30 24 21 22 21 19 16 14 12 10 9 8 9 10 9 7 6 7 7 7 7 6 7 8 7 6 5 5 4 9
19 20 28 35 35 33 30 25 26 28 28 28 25 21 20 23 26 25 23 20 18 15 11 10 10 10 7 10 7 7 8 8 8 6 7 8 8 9 9 8 6 2 6
15 18 22 27 30 20 19 24 27 27 25 23 19 18 22 26 26 25 25 20 20 17 15 15 15 13 9 10 9 8 7 8 7 6 7 7 8 9 10 12 13 10 6
10 14 22 23 20 20 22 24 26 24 23 19 18 15 19 24 24 24 19 15 15 15 15 16 15 13 11 10 10 9 7 7 7 5 5 6 7 8 9 11 12 12 13
8 11 19 20 20 19 20 23 24 23 22 20 18 15 20 23 21 17 11 10 13 12 13 15 14 14 12 12 10 8 7 6 6 5 5 6 7 7 8 9 10 11 12
9 14 20 20 19 19 20 22 24 24 23 21 18 18 19 22 21 17 17 13 10 9 10 14 14 14 13 13 10 8 6 6 6 5 5 5 6 8 8 8 8 10 11
12 16 20 19 18 19 21 22 23 24 23 20 18 18 18 21 23 24 22 19 16 11 11 17 16 16 13 11 10 8 7 6 6 5 5 5 5 6 6 7 6 7 8
14 17 18 19 19 20 21 21 20 19 18 18 18 17 15 15 22 24 21 18 15 10 14 18 17 15 13 11 10 9 8 7 6 5 4 4 3 3 3 6 5 3 3
15 18 18 20 21 21 21 17 14 13 11 9 9 6 7 5 12 22 22 19 17 14 17 17 16 14 12 11 11 10 8 6 5 5 3 2 2 3 1 3 4 4 2
13 16 18 20 21 21 21 20 19 14 13 11 10 9 8 6 8 13 18 18 18 18 18 17 15 14 13 11 11 9 8 7 5 3 3 2 2 2 1 3 4 4 2
10 12 16 19 21 22 21 20 18 18 20 17 15 14 11 9 8 8 9 12 17 20 18 16 14 12 12 11 10 8 7 6 5 3 3 3 4 4 3 3 5 4 2
8 10 15 19 21 21 18 18 17 17 18 19 19 17 15 13 12 11 10 11 16 18 16 13 13 12 13 13 11 9 7 6 6 6 5 4 4 5 6 5 6 5 4
7 9 14 18 20 19 16 15 17 18 18 19 19 18 18 18 17 16 13 16 19 17 16 13 13 15 15 13 10 9 10 10 10 9 8 6 4 6 7 7 8 7 7
9 12 14 17 17 16 14 13 12 12 13 14 14 14 15 15 15 12 17 16 16 15 14 14 14 14 14 14 12 12 13 12 11 10 10 8 7 8 8 9 8 9 9
11 14 14 14 15 15 14 12 9 9 9 9 9 8 7 7 7 9 14 14 13 13 13 13 13 13 13 13 13 13 13 13 12 12 12 10 9 9 10 10 10 11 12
12 14 13 13 12 12 13 11 10 11 10 10 8 9 8 7 8 8 9 10 9 11 14 14 13 14 13 14 14 15 14 14 14 13 10 10 10 11 11 12 12 12 14
12 12 12 12 12 12 12 12 11 12 14 13 10 11 9 9 11 11 10 9 9 9 10 13 14 13 12 11 13 15 16 16 14 12 11 11 12 13 12 12 13 14 15
12 11 11 11 11 12 12 11 11 12 13 14 12 11 10 10 14 15 15 13 11 10 11 12 14 14 13 14 14 15 15 14 14 14 13 13 13 13 13 14 14 14 14
13 11 10 10 11 11 11 12 12 11 11 12 12 12 11 9 13 17 17 15 12 11 10 10 12 13 13 13 14 13 13 14 14 14 14 14 14 14 15 15 15 15 16
Wind_Direction
250 250 253 245 234 236 234 226 223 224 228 231 219 210 203 200 198 199 199 198 197 194 187 189 197 211 223 214 203 191 176 178 180 126 273 297 321 335 356 11 16 10 3
263 261 257 249 240 237 232 224 220 222 227 230 217 208 199 200 199 197 199 194 194 188 190 198 191 187 192 203 198 192 189 190 137 162 236 293 320 335 3 46 28 16 20
281 268 273 257 240 235 229 222 220 225 230 220 213 205 196 195 196 195 192 194 202 216 218 205 203 209 212 206 209 209 196 194 223 207 241 280 320 336 73 53 36 19 8
284 279 278 266 253 243 234 227 227 225 224 214 209 205 197 191 191 200 205 211 232 215 204 198 202 209 219 217 211 211 195 199 201 219 238 276 301 146 145 76 56 28 348
275 269 262 246 237 235 230 224 222 220 219 212 204 195 192 187 191 200 207 234 216 210 198 198 196 204 209 200 210 208 208 215 217 231 247 248 163 150 160 99 84 48 346
287 262 253 239 232 231 226 217 214 212 209 207 196 195 192 194 218 219 206 210 200 196 192 181 177 181 183 189 194 204 205 218 235 227 204 173 116 131 145 132 94 71 17
310 268 247 232 228 220 217 213 213 212 210 208 207 201 200 203 199 183 200 197 198 188 179 185 184 177 165 160 173 179 188 197 176 133 109 98 95 106 140 152 103 82 35
296 274 255 237 232 225 216 215 215 216 213 208 209 207 203 180 196 189 190 201 207 198 182 184 184 181 165 156 151 157 159 143 129 118 107 90 75 83 101 113 110 89 49
286 279 254 232 227 214 207 208 215 210 205 206 202 202 192 180 186 189 193 201 205 202 198 198 202 200 164 154 159 162 154 142 134 127 105 89 80 71 75 79 89 170 84
293 276 250 237 220 202 212 213 208 204 200 202 198 198 181 183 193 196 203 210 213 212 211 207 196 189 172 163 157 158 162 143 129 114 104 97 92 90 94 92 92 88 123
281 265 241 225 212 225 221 212 205 198 200 194 196 186 186 196 195 204 208 210 207 200 192 185 180 174 165 160 158 156 160 150 131 122 114 106 104 97 94 91 83 75 71
258 242 220 214 220 220 216 203 201 200 197 190 192 184 192 192 193 201 197 188 187 185 178 173 170 164 162 159 160 158 163 151 139 136 123 114 99 100 96 95 90 79 71
235 222 211 213 219 217 206 200 194 197 196 194 198 204 196 191 189 187 187 196 202 175 170 173 169 162 162 160 164 164 161 155 155 149 141 122 100 84 79 75 79 77 60
222 216 215 213 208 205 203 200 199 197 196 196 202 209 201 198 194 197 200 198 200 197 188 177 175 168 169 171 164 163 160 160 158 158 144 118 94 94 97 93 95 75 72
217 209 212 210 203 196 197 197 199 201 200 197 208 213 208 203 202 207 206 210 211 197 185 180 177 174 172 171 170 171 175 175 162 154 137 128 125 91 79 94 92 98 78
212 209 203 207 198 194 191 186 189 187 176 196 209 220 204 199 207 208 206 209 207 205 188 184 181 176 177 179 183 186 178 177 175 170 163 134 132 140 87 46 64 64 83
213 208 206 202 198 192 187 183 178 177 181 193 210 212 219 220 198 190 195 204 196 192 188 187 189 188 186 191 194 185 186 190 198 177 162 161 191 239 229 323 8 33 64
210 213 207 200 197 194 192 192 193 190 185 182 199 206 209 211 210 198 197 195 185 186 192 191 192 194 199 206 213 206 209 212 221 217 210 210 226 258 285 298 320 346 338
188 202 200 197 195 200 198 198 204 203 200 197 184 184 194 205 220 229 216 217 203 189 194 190 199 202 207 215 222 223 221 219 234 246 249 242 247 266 290 307 311 317 310
189 192 188 191 195 200 203 199 206 213 210 208 205 206 202 210 217 228 222 192 190 194 199 208 210 212 216 227 232 235 237 239 243 251 259 267 274 275 288 297 300 301 301
179 171 179 185 191 198 202 200 197 197 201 204 213 218 225 227 224 219 186 181 182 195 208 215 220 224 229 232 235 237 237 240 243 252 264 278 274 274 280 287 294 294 297
169 172 179 185 190 196 201 202 204 205 196 197 193 190 193 197 190 184 192 193 199 208 220 229 234 239 246 249 246 244 247 251 259 261 268 275 274 277 280 289 293 295 296
177 180 183 188 195 202 206 209 212 205 205 210 217 212 212 197 193 191 199 206 227 238 236 242 244 245 244 245 250 254 250 254 263 270 271 272 278 282 284 288 294 293 294
183 189 194 197 199 205 208 207 206 207 214 223 230 226 227 214 212 226 235 248 255 260 262 258 257 254 252 251 253 255 260 262 267 272 274 274 273 280 287 289 288 291 290
176 180 186 189 192 196 202 206 212 215 221 237 235 227 230 231 229 233 242 251 265 264 264 258 251 249 250 255 259 261 262 265 264 265 267 268 272 279 284 286 286 287 292
168 174 178 186 191 196 206 214 220 222 215 218 223 230 235 242 238 236 240 252 259 266 267 256 249 250 253 257 257 257 258 256 259 263 268 272 277 282 288 292 296 297 297
Height
1482 1484 1484 1486 1485 1485 1485 1484 1486 1488 1491 1495 1495 1496 1496 1497 1498 1499 1499 1500 1500 1504 1504 1503 1506 1506 1508 1509 1512 1512 1513 1516 1515 1517 1515 1514 1513 1510 1508 1506 1505 1503 1503
1476 1479 1480 1481 1480 1480 1481 1481 1483 1486 1489 1490 1492 1496 1495 1496 1498 1498 1498 1499 1498 1501 1502 1501 1503 1504 1507 1508 1509 1510 1512 1512 1513 1514 1513 1511 1512 1510 1508 1506 1504 1503 1503
1474 1473 1473 1474 1474 1475 1476 1476 1478 1482 1485 1487 1490 1491 1492 1495 1497 1498 1497 1497 1497 1498 1498 1499 1502 1503 1505 1506 1506 1510 1510 1508 1511 1511 1510 1509 1510 1509 1508 1504 1500 1502 1503
1471 1468 1466 1467 1466 1469 1469 1469 1473 1473 1480 1483 1486 1490 1490 1491 1493 1497 1496 1495 1495 1496 1497 1498 1500 1502 1503 1504 1505 1508 1507 1506 1507 1507 1507 1507 1508 1506 1504 1501 1499 1499 1504
1465 1464 1462 1461 1460 1461 1465 1465 1467 1468 1473 1480 1482 1485 1486 1487 1489 1492 1493 1492 1494 1494 1495 1496 1497 1499 1502 1502 1505 1506 1505 1504 1506 1506 1506 1504 1505 1504 1502 1500 1498 1496 1503
1457 1459 1456 1453 1454 1456 1458 1460 1461 1464 1466 1474 1476 1479 1483 1486 1486 1488 1489 1490 1493 1492 1493 1494 1496 1499 1499 1500 1503 1503 1503 1505 1506 1506 1504 1504 1504 1501 1500 1498 1499 1495 1501
1453 1451 1450 1447 1449 1451 1451 1454 1458 1461 1466 1467 1476 1478 1480 1479 1482 1487 1488 1487 1490 1491 1492 1494 1495 1497 1498 1499 1501 1501 1503 1505 1505 1504 1505 1504 1503 1501 1499 1495 1498 1497 1498
1448 1447 1445 1444 1444 1445 1447 1450 1454 1458 1462 1466 1467 1474 1476 1476 1482 1485 1487 1487 1487 1489 1490 1493 1496 1496 1497 1497 1499 1501 1504 1505 1504 1502 1504 1504 1503 1499 1498 1495 1496 1500 1498
1445 1443 1443 1442 1442 1444 1446 1451 1455 1459 1461 1464 1467 1472 1475 1477 1481 1482 1485 1486 1488 1489 1489 1493 1496 1496 1496 1495 1499 1502 1504 1503 1504 1504 1503 1505 1503 1501 1499 1495 1493 1501 1498
1440 1440 1440 1441 1443 1448 1451 1452 1454 1458 1460 1465 1469 1473 1473 1476 1479 1481 1486 1487 1487 1488 1489 1493 1495 1495 1495 1497 1499 1501 1503 1502 1503 1505 1505 1505 1504 1502 1502 1498 1494 1499 1498
1437 1437 1438 1440 1443 1446 1448 1451 1454 1458 1462 1464 1470 1473 1473 1476 1477 1480 1483 1485 1486 1486 1490 1491 1492 1494 1496 1498 1500 1501 1502 1503 1503 1507 1506 1506 1505 1503 1502 1499 1498 1498 1499
1434 1435 1437 1441 1443 1444 1447 1450 1453 1458 1461 1464 1468 1470 1474 1475 1477 1479 1483 1484 1484 1488 1489 1490 1492 1494 1497 1498 1501 1502 1503 1504 1505 1508 1507 1507 1505 1505 1502 1500 1500 1500 1500
1433 1436 1437 1440 1442 1445 1446 1450 1453 1457 1460 1463 1467 1470 1471 1474 1477 1480 1483 1484 1484 1487 1488 1491 1493 1495 1498 1499 1500 1501 1503 1505 1507 1507 1507 1507 1505 1505 1503 1500 1500 1500 1500
1431 1434 1438 1439 1442 1445 1447 1449 1453 1456 1459 1463 1466 1468 1471 1473 1476 1478 1482 1484 1485 1486 1487 1490 1492 1495 1498 1500 1500 1502 1503 1505 1506 1507 1507 1506 1506 1505 1505 1501 1501 1501 1501
1432 1433 1436 1439 1441 1445 1448 1450 1452 1456 1459 1462 1465 1467 1470 1471 1474 1478 1481 1483 1485 1487 1488 1490 1492 1494 1496 1498 1500 1502 1503 1505 1505 1506 1506 1506 1506 1505 1505 1502 1502 1502 1502
1432 1434 1434 1440 1443 1445 1447 1451 1454 1456 1459 1463 1465 1468 1470 1472 1474 1476 1480 1481 1484 1486 1488 1490 1492 1493 1496 1498 1500 1501 1502 1503 1505 1506 1506 1505 1505 1505 1504 1502 1502 1502 1502
1432 1433 1436 1440 1444 1446 1448 1450 1452 1457 1459 1463 1466 1468 1470 1472 1473 1475 1478 1479 1483 1485 1486 1490 1492 1493 1495 1499 1500 1500 1502 1502 1504 1504 1505 1504 1504 1504 1503 1501 1501 1501 1500
1429 1433 1437 1441 1446 1447 1449 1452 1454 1457 1460 1463 1467 1468 1470 1472 1473 1475 1477 1479 1481 1484 1486 1489 1490 1492 1493 1496 1498 1500 1501 1502 1502 1503 1503 1503 1503 1503 1502 1500 1499 1499 1498
1429 1432 1437 1441 1446 1448 1451 1455 1457 1459 1461 1464 1466 1469 1470 1472 1472 1474 1477 1479 1481 1483 1486 1487 1489 1491 1493 1495 1496 1498 1499 1502 1501 1502 1502 1502 1502 1501 1500 1498 1497 1497 1496
1432 1433 1436 1441 1445 1449 1451 1454 1457 1459 1460 1462 1465 1467 1468 1470 1470 1472 1474 1476 1480 1483 1485 1486 1488 1490 1491 1493 1495 1496 1498 1499 1500 1500 1500 1500 1499 1498 1497 1496 1496 1495 1494
1433 1435 1438 1442 1445 1448 1450 1453 1456 1457 1458 1460 1462 1465 1467 1467 1469 1472 1473 1475 1478 1481 1483 1485 1487 1487 1489 1491 1493 1494 1496 1497 1498 1498 1498 1497 1497 1496 1495 1494 1493 1492 1491
1435 1437 1440 1443 1445 1448 1450 1453 1454 1456 1458 1459 1461 1463 1465 1467 1468 1471 1474 1476 1478 1479 1481 1483 1484 1485 1487 1489 1491 1492 1493 1494 1495 1495 1495 1494 1494 1493 1492 1491 1490 1489 1488
1436 1439 1441 1443 1446 1448 1450 1453 1454 1456 1458 1459 1461 1463 1464 1466 1469 1471 1474 1476 1477 1478 1479 1480 1482 1483 1485 1486 1487 1489 1491 1492 1492 1492 1492 1491 1490 1490 1489 1488 1487 1486 1484
1437 1439 1441 1444 1446 1448 1450 1452 1454 1456 1457 1459 1460 1462 1465 1467 1469 1471 1473 1474 1476 1477 1477 1478 1479 1480 1482 1484 1485 1486 1487 1488 1489 1489 1488 1488 1487 1486 1485 1484 1483 1482 1480
1437 1439 1441 1444 1446 1447 1449 1452 1454 1456 1458 1459 1460 1462 1465 1466 1468 1469 1471 1473 1474 1475 1476 1476 1477 1478 1480 1481 1482 1482 1483 1484 1484 1484 1484 1483 1483 1482 1481 1480 1479 1478 1476
1438 1440 1442 1444 1446 1448 1450 1451 1453 1455 1456 1458 1460 1462 1464 1465 1466 1467 1469 1471 1472 1473 1474 1475 1475 1476 1476 1477 1478 1479 1479 1479 1479 1479 1479 1478 1478 1477 1476 1476 1475 1474 1473